Printer-friendly version

IAU Minor Planet Center

Minor Planet Center

MPEC 2007-G36 : 2007 GT3

The following Minor Planet Electronic Circular may be linked-to from your own Web pages, but must not otherwise be redistributed electronically.


Read MPEC 2007-G35 Read MPEC 2007-G37


M.P.E.C. 2007-G36                                Issued 2007 Apr. 12, 16:18 UT

     The Minor Planet Electronic Circulars contain information on unusual
         minor planets and routine data on comets.  They are published
   on behalf of Commission 20 of the International Astronomical Union by the
          Minor Planet Center, Smithsonian Astrophysical Observatory,
                          Cambridge, MA 02138, U.S.A.

             Prepared using the Tamkin Foundation Computer Network

                              MPC@CFA.HARVARD.EDU
          URL http://cfa-www.harvard.edu/iau/mpc.html  ISSN 1523-6714

                                   2007 GT3

Observations:
     K07G03T* C2007 04 11.64089 13 50 38.68 -29 04 36.6          18.9 V EG036E12
     K07G03T  C2007 04 11.68021 13 50 21.51 -29 05 53.1          19.0 V EG036E12
     K07G03T  C2007 04 11.73579 13 49 57.14 -29 07 38.5          19.2 V EG036E12
     K07G03T  C2007 04 11.73743 13 49 56.42 -29 07 42.4          18.6 V EG036E12
     K07G03T  C2007 04 11.73906 13 49 55.70 -29 07 44.0          17.6 V EG036E12
     K07G03T  C2007 04 11.74072 13 49 54.98 -29 07 48.2          19.2 V EG036E12
     K07G03T  C2007 04 11.95338 13 48 23.60 -29 15 13.4                 EG036246
     K07G03T  C2007 04 11.95390 13 48 23.24 -29 15 14.9                 EG036246
     K07G03T  C2007 04 11.95466 13 48 23.02 -29 15 15.8                 EG036246
     K07G03T  C2007 04 11.95529 13 48 22.64 -29 15 17.7                 EG036246
     K07G03T  C2007 04 11.95586 13 48 22.45 -29 15 18.0                 EG036246
     K07G03T  C2007 04 11.95748 13 48 21.72 -29 15 21.2                 EG036246
     K07G03T  C2007 04 11.95831 13 48 21.32 -29 15 24.8                 EG036246
     K07G03T  C2007 04 12.55012 13 43 50.80 -29 34 35.9          18.2 V EG036E12
     K07G03T  C2007 04 12.55065 13 43 50.55 -29 34 37.8          18.5 V EG036E12
     K07G03T  C2007 04 12.55118 13 43 50.23 -29 34 38.5          18.6 V EG036E12
     K07G03T  C2007 04 12.55170 13 43 50.01 -29 34 39.7          18.5 V EG036E12

Observer details:
246 Klet Observatory-KLENOT.  Observer M. Tichy.  1.06-m KLENOT Telescope
    + CCD.
E12 Siding Spring Survey.  Observer G. J. Garradd.  Measurers E. C. Beshore,
    E. J. Christensen, G. J. Garradd, A. R. Gibbs, A. D. Grauer, R. E. Hill,
    R. A. Kowalski, S. M. Larson, R. H. McNaught.  0.5-m Uppsala Schmidt + CCD.

Orbital elements:
2007 GT3                                                 Earth MOID = 0.1219 AU
Epoch 2007 Apr. 10.0 TT = JDT 2454200.5                 MPC
M 339.79333              (2000.0)            P               Q
n   0.35745245     Peri.  342.21053     +0.99224798     +0.06970956
a   1.9663336      Node    14.96097     +0.02558988     +0.69550814
e   0.9372876      Incl.   23.48539     -0.12161047     +0.71512867
P   2.76           H   19.4           G   0.15           U   9
Residuals in seconds of arc
070411 E12  0.1+  0.1+    070411 246  0.7+  0.3+    070411 246  0.1-  1.3-
070411 E12  0.3+  0.7-    070411 246  1.0-  0.2-    070412 E12  0.3+  0.4+
070411 E12  0.1-  0.2+    070411 246  0.6+  0.4+    070412 E12  0.3+  0.4-
070411 E12  0.1-  0.6-    070411 246  0.6-  0.2-    070412 E12  0.5-  0.0
070411 E12  0.2-  0.9+    070411 246  0.2+  0.6+    070412 E12  0.1-  0.1-
070411 E12  0.1-  0.1-    070411 246  0.2+  0.6+

Ephemeris:
2007 GT3                 a,e,i = 1.97, 0.94, 23                  q = 0.1233
Date    TT    R. A. (2000) Decl.     Delta      r     Elong.  Phase     V
2007 04 10    14 01.29   -28 13.2    0.387    1.366   156.5    17.0    18.9
2007 04 12    13 48.05   -29 16.3    0.351    1.334   158.1    16.3    18.6
2007 04 14    13 31.36   -30 24.3    0.316    1.302   158.7    16.2    18.3
2007 04 16    13 10.13   -31 34.3    0.283    1.269   157.6    17.6    18.1
2007 04 18    12 42.99   -32 40.0    0.252    1.236   154.1    20.8    17.9
2007 04 20    12 08.45   -33 27.6    0.226    1.202   148.0    26.3    17.8
2007 04 22    11 25.49   -33 33.9    0.204    1.167   139.3    34.2    17.7
2007 04 24    10 34.89   -32 27.3    0.189    1.132   128.3    44.2    17.7
2007 04 26    09 40.33   -29 43.7    0.181    1.096   115.6    55.9    17.9
2007 04 28    08 47.50   -25 30.1    0.181    1.059   102.1    68.3    18.2
2007 04 30    08 01.07   -20 27.6    0.189    1.022    89.1    80.2    18.6
2007 05 02    07 22.77   -15 24.6    0.205    0.983    77.4    90.9    19.1
2007 05 04    06 52.05   -10 51.8    0.225    0.944    67.2   100.0    19.7
2007 05 06    06 27.51   -06 59.4    0.250    0.904    58.6   107.7    20.2
2007 05 08    06 07.67   -03 45.8    0.279    0.862    51.2   114.2    20.7
2007 05 10    05 51.35   -01 05.1    0.309    0.820    44.8   119.8    21.2

Kyle E. Smalley              (C) Copyright 2007 MPC           M.P.E.C. 2007-G36

Read MPEC 2007-G35 Read MPEC 2007-G37


Our Web policy. Index to the CBAT/MPC/ICQ pages.


Valid HTML 4.01!